Williams, AZ

2:38 AM MST on August 25, 2016 (GMT -0700)
Williams

Weather History for KCMR - October, 2012

Change the Weather History Date:

Wednesday, October 10, 2012

  Actual Average (KFLG) Record (KFLG)
Temperature  
Mean Temperature 54 °F 49 °F  
Max Temperature 68 °F 64 °F 81 °F (1996)
Min Temperature 41 °F 33 °F 20 °F (1973)
Degree Days  
Heating Degree Days 10 16  
Month to date heating degree days 147  
Since 1 July heating degree days 464  
Cooling Degree Days 0 0  
Month to date cooling degree days 0  
Year to date cooling degree days 117  
Growing Degree Days 4 (Base 50)    
Moisture  
Dew Point 35 °F    
Average Humidity 51    
Maximum Humidity 81    
Minimum Humidity 26    
Precipitation  
Precipitation 0.00 in 0.05 in 0.58 in (1985)
Month to date precipitation 0.57  
Year to date precipitation 17.14  
Snow  
Snow 0.00 in 0.00 in T in (1930)
Month to date snowfall 0.2  
Since 1 July snowfall 0.2  
Snow Depth -    
Sea Level Pressure  
Sea Level Pressure 30.24 in    
Wind  
Wind Speed 9 mph (SSE)    
Max Wind Speed 16 mph    
Max Gust Speed 23 mph    
Visibility 10 miles    
Events      
T = Trace of Precipitation, MM = Missing Value Source: NWS Daily Summary

Daily Weather History Graph

Daily Weather History Graph

Search for Another Location

Airport or City:

Trip Planner

Search our weather history database for the weather conditions in past years. The results will help you decide how hot, cold, wet, or windy it might be!

Date:

Astronomy

Oct. 10, 2012 Rise Set
Actual Time 6:31 AM MST 5:59 PM MST
Civil Twilight 6:05 AM MST 6:24 PM MST
Nautical Twilight 5:36 AM MST 6:54 PM MST
Astronomical Twilight 5:06 AM MST 7:23 PM MST
Moon 1:22 AM MST (10/10) 2:54 PM MST (10/10)
Length of Visible Light 12h 19m
Length of Day
11h 28m
Waning Crescent, 26% of the Moon is Illuminated
Oct 10
Waning Crescent
Oct 15
New
Oct 21
First Quarter
Oct 29
Full
Nov 6
Last Quarter

Hourly Weather History & Observations

Time (MST) Temp. Windchill Dew Point Humidity Pressure Visibility Wind Dir Wind Speed Gust Speed Precip Events Conditions
12:15 AM 46.4 °F 44.3 °F 33.8 °F 62% 30.29 in 10.0 mi SSE 4.6 mph - N/A   Clear
12:35 AM 46.4 °F 42.9 °F 33.8 °F 62% 30.28 in 10.0 mi SSE 6.9 mph - N/A   Clear
1:15 AM 44.6 °F 39.7 °F 35.6 °F 71% 30.28 in 10.0 mi SSE 9.2 mph - N/A   Clear
1:35 AM 44.6 °F 39.7 °F 35.6 °F 71% 30.29 in 10.0 mi SSE 9.2 mph - N/A   Clear
1:55 AM 44.6 °F 40.7 °F 35.6 °F 71% 30.28 in 10.0 mi SSE 6.9 mph - N/A   Clear
2:15 AM 41.0 °F 37.1 °F 33.8 °F 76% 30.28 in 10.0 mi SSE 5.8 mph - N/A   Clear
2:35 AM 42.8 °F 38.0 °F 33.8 °F 70% 30.28 in 10.0 mi SE 8.1 mph - N/A   Clear
2:55 AM 42.8 °F 38.0 °F 33.8 °F 70% 30.27 in 10.0 mi SSE 8.1 mph - N/A   Clear
3:15 AM 44.6 °F 40.2 °F 35.6 °F 71% 30.26 in 10.0 mi SSE 8.1 mph - N/A   Clear
3:35 AM 42.8 °F 38.0 °F 35.6 °F 76% 30.26 in 10.0 mi SSE 8.1 mph - N/A   Clear
3:55 AM 42.8 °F 37.0 °F 35.6 °F 76% 30.26 in 10.0 mi SSE 10.4 mph - N/A   Clear
4:15 AM 41.0 °F 35.2 °F 33.8 °F 76% 30.26 in 10.0 mi SSE 9.2 mph - N/A   Clear
4:35 AM 42.8 °F 38.0 °F 35.6 °F 76% 30.26 in 10.0 mi SSE 8.1 mph - N/A   Clear
4:55 AM 44.6 °F 39.7 °F 35.6 °F 71% 30.26 in 10.0 mi SSE 9.2 mph - N/A   Clear
5:15 AM 41.0 °F 35.2 °F 35.6 °F 81% 30.27 in 10.0 mi SSE 9.2 mph - N/A   Clear
5:35 AM 42.8 °F 37.5 °F 35.6 °F 76% 30.27 in 10.0 mi SSE 9.2 mph - N/A   Clear
5:55 AM 44.6 °F 40.2 °F 35.6 °F 71% 30.27 in 10.0 mi SSE 8.1 mph - N/A   Clear
6:15 AM 44.6 °F 40.2 °F 35.6 °F 71% 30.28 in 10.0 mi SSE 8.1 mph - N/A   Clear
6:35 AM 44.6 °F 40.2 °F 35.6 °F 71% 30.28 in 10.0 mi SSE 8.1 mph - N/A   Clear
7:15 AM 46.4 °F 42.9 °F 35.6 °F 66% 30.28 in 10.0 mi SE 6.9 mph - N/A   Clear
7:35 AM 50.0 °F - 37.4 °F 62% 30.28 in 10.0 mi SE 5.8 mph - N/A   Clear
7:55 AM 53.6 °F - 37.4 °F 54% 30.29 in 10.0 mi ESE 9.2 mph - N/A   Clear
8:15 AM 55.4 °F - 37.4 °F 51% 30.29 in 10.0 mi ESE 9.2 mph - N/A   Clear
8:35 AM 57.2 °F - 39.2 °F 51% 30.30 in 10.0 mi ESE 6.9 mph - N/A   Clear
8:55 AM 57.2 °F - 39.2 °F 51% 30.30 in 10.0 mi ESE 5.8 mph - N/A   Clear
9:15 AM 60.8 °F - 37.4 °F 42% 30.30 in 10.0 mi South 8.1 mph - N/A   Clear
9:35 AM 62.6 °F - 37.4 °F 39% 30.29 in 10.0 mi South 16.1 mph 19.6 mph N/A   Clear
9:55 AM 62.6 °F - 37.4 °F 39% 30.30 in 10.0 mi SSE 12.7 mph 19.6 mph N/A   Clear
10:15 AM 64.4 °F - 37.4 °F 37% 30.30 in 10.0 mi SE 10.4 mph 19.6 mph N/A   Clear
10:35 AM 64.4 °F - 35.6 °F 34% 30.29 in 10.0 mi South 11.5 mph 18.4 mph N/A   Clear
10:55 AM 64.4 °F - 35.6 °F 34% 30.29 in 10.0 mi SE 12.7 mph 18.4 mph N/A   Clear
11:15 AM 66.2 °F - 35.6 °F 32% 30.28 in 10.0 mi SSE 15.0 mph 18.4 mph N/A   Clear
11:35 AM 66.2 °F - 37.4 °F 35% 30.28 in 10.0 mi SSE 13.8 mph 21.9 mph N/A   Clear
11:55 AM 66.2 °F - 35.6 °F 32% 30.27 in 10.0 mi SSE 16.1 mph 20.7 mph N/A   Clear
12:15 PM 66.2 °F - 35.6 °F 32% 30.26 in 10.0 mi SSE 10.4 mph 20.7 mph N/A   Clear
12:35 PM 66.2 °F - 35.6 °F 32% 30.25 in 10.0 mi South 16.1 mph 23.0 mph N/A   Clear
12:55 PM 68.0 °F - 32.0 °F 26% 30.24 in 10.0 mi South 15.0 mph 18.4 mph N/A   Clear
1:15 PM 68.0 °F - 35.6 °F 30% 30.23 in 10.0 mi SE 13.8 mph 21.9 mph N/A   Clear
1:35 PM 68.0 °F - 33.8 °F 28% 30.22 in 10.0 mi SSE 16.1 mph 23.0 mph N/A   Clear
1:55 PM 66.2 °F - 35.6 °F 32% 30.21 in 10.0 mi SSE 13.8 mph 20.7 mph N/A   Clear
2:15 PM 66.2 °F - 35.6 °F 32% 30.21 in 10.0 mi SSE 13.8 mph 18.4 mph N/A   Clear
2:35 PM 66.2 °F - 35.6 °F 32% 30.21 in 10.0 mi SSW 9.2 mph 17.3 mph N/A   Partly Cloudy
2:55 PM 66.2 °F - 35.6 °F 32% 30.21 in 10.0 mi SSE 13.8 mph 20.7 mph N/A   Partly Cloudy
3:15 PM 66.2 °F - 37.4 °F 35% 30.20 in 10.0 mi SE 12.7 mph 18.4 mph N/A   Clear
3:35 PM 66.2 °F - 35.6 °F 32% 30.20 in 10.0 mi South 10.4 mph 19.6 mph N/A   Clear
3:55 PM 66.2 °F - 35.6 °F 32% 30.19 in 10.0 mi SE 12.7 mph - N/A   Clear
4:15 PM 66.2 °F - 33.8 °F 30% 30.19 in 10.0 mi SSE 16.1 mph 20.7 mph N/A   Clear
4:35 PM 66.2 °F - 35.6 °F 32% 30.18 in 10.0 mi South 12.7 mph 17.3 mph N/A   Clear
4:55 PM 64.4 °F - 33.8 °F 32% 30.18 in 10.0 mi SSE 15.0 mph - N/A   Clear
5:15 PM 64.4 °F - 33.8 °F 32% 30.18 in 10.0 mi SSE 11.5 mph - N/A   Clear
5:35 PM 62.6 °F - 35.6 °F 37% 30.18 in 10.0 mi South 13.8 mph - N/A   Clear
5:55 PM 60.8 °F - 35.6 °F 39% 30.18 in 10.0 mi SSE 10.4 mph - N/A   Clear
6:15 PM 59.0 °F - 33.8 °F 39% 30.18 in 10.0 mi South 8.1 mph - N/A   Clear
6:35 PM 57.2 °F - 33.8 °F 41% 30.19 in 10.0 mi South 9.2 mph - N/A   Clear
6:55 PM 57.2 °F - 35.6 °F 44% 30.20 in 10.0 mi South 8.1 mph - N/A   Clear
7:15 PM 55.4 °F - 35.6 °F 47% 30.20 in 10.0 mi South 6.9 mph - N/A   Clear
7:35 PM 53.6 °F - 35.6 °F 51% 30.20 in 10.0 mi South 6.9 mph - N/A   Clear
8:15 PM 51.8 °F - 35.6 °F 54% 30.21 in 10.0 mi South 8.1 mph - N/A   Clear
8:35 PM 50.0 °F - 35.6 °F 58% 30.21 in 10.0 mi South 8.1 mph - N/A   Clear
8:55 PM 50.0 °F - 35.6 °F 58% 30.22 in 10.0 mi SSE 8.1 mph - N/A   Clear
9:35 PM 50.0 °F - 33.8 °F 54% 30.22 in 10.0 mi South 4.6 mph - N/A   Clear
9:55 PM 48.2 °F - 33.8 °F 58% 30.21 in 10.0 mi SE 6.9 mph - N/A   Clear
10:15 PM 46.4 °F 41.9 °F 32.0 °F 57% 30.21 in 10.0 mi SE 9.2 mph - N/A   Clear
10:35 PM 46.4 °F 41.9 °F 32.0 °F 57% 30.21 in 10.0 mi SE 9.2 mph - N/A   Clear
10:55 PM 46.4 °F 41.9 °F 32.0 °F 57% 30.21 in 10.0 mi SE 9.2 mph - N/A   Clear
11:15 PM 48.2 °F - 33.8 °F 58% 30.20 in 10.0 mi SE 9.2 mph - N/A   Clear
11:35 PM 48.2 °F - 35.6 °F 62% 30.20 in 10.0 mi SE 10.4 mph - N/A   Clear
11:55 PM 46.4 °F 42.4 °F 35.6 °F 66% 30.20 in 10.0 mi SSE 8.1 mph - N/A   Clear